カタログに戻る

COSMOS 2012

運用中軍事LEO
NORAD 19906·PAYLOAD·🇷🇺 Russia

打ち上げ Mar 24, 1989 から Plesetsk Cosmodrome

Loading…

次のパス (今後24時間)

TLE

最新Source: Space-Track

元期: Sep 14, 2026, 11:50 UTC

1 19906U 89025E   26257.49373069  .00000002  00000-0  11951-3 0  9994
2 19906  74.0115 178.4126 0009669  87.1904  28.1608 12.50247481710437

AllMySatでCOSMOS 2012をリアルタイム追跡

Download on the App Store